www.pogodaiklimat.ru

Погода и климат >> Архив погоды >> Узбекистан >> Жаслык


ПОГОДА в Жаслыке

  • Прогноз погоды в Жаслыке
  • Монитор погоды в Жаслыке
  • Климат города

АРХИВ ПОГОДЫ в Жаслыке

Время (UTC), дата Ветер
(напр.,м/с)
 
Видим.   Явления Облачность Т
(С)
Тd
(С)
f
(%)
Тe
(С)
Тes
(С)
Комфортность P
(гПа)
Po
(гПа)
Тmin
(С)
Tmax
(С)
R
(мм)
R24
(мм)
S
(см)
12 14.09 ЮВ 5 20 км ясно +28.4 +1.2 17 +26 +28 жарко 1020.9 1005.2
15 14.09 В 3 20 км ясно +24.7 +3.2 25 +24 +24 комфорт 1020.2 1004.6 +29.1
18 14.09 В 2 20 км ясно +18.7 +2.3 33 +19 +19 1020.9 1005.2 +29.1
21 14.09 СВ 1 20 км ясно +14.5 +1.9 42 +15 +15 1021.0 1005.3
00 15.09 В 2 20 км ясно +12.9 +1.4 45 +12 +12 1020.4 1004.7
03 15.09 В 1 20 км ясно +13.8 +0.2 39 +14 +15 1021.3 1005.6
06 15.09 Ю 1 20 км ясно +26.8 +3.8 23 +26 +36 жарко 1021.6 1005.9 +11.0
09 15.09 Ю 2 20 км ясно +30.0 +3.7 19 +28 +39 жарко 1020.2 1004.5
12 15.09 Ю 3 20 км ясно +30.6 +2.9 17 +28 +31 жарко 1018.8 1004.1
15 15.09 Ю 3 20 км ясно +26.0 +3.7 24 +25 +25 комфорт 1018.5 1002.8 +31.6
18 15.09 ЮВ 2 20 км ясно +20.8 +3.5 32 +22 +22 комфорт 1018.5 1003.0 +31.6
21 15.09 ЮЗ 3 20 км ясно +19.9 +5.6 39 +21 +21 комфорт 1018.6 1002.9
00 16.09 ЮЗ 2 20 км ясно +15.5 +5.2 50 +16 +16 1018.8 1003.2
03 16.09 В 2 20 км ясно +15.9 +3.3 43 +16 +17 1020.0 1004.4 +13.0
06 16.09 З 3 20 км ясно +27.0 +6.4 27 +26 +33 жарко 1020.9 1005.2 +13.0
09 16.09 СВ 3 20 км ясно +31.7 +4.5 18 +29 +39 жарко 1020.1 1005.2
12 16.09 В 2 20 км ясно +32.8 +3.4 16 +30 +34 жарко 1019.1 1003.5
15 16.09 ЮЗ 6 20 км ясно +27.8 +3.4 21 +26 +26 жарко 1018.8 1003.1 +34.2
18 16.09 ЮЗ 3 20 км ясно +22.4 +2.9 28 +22 +22 комфорт 1019.8 1004.1 +34.2
21 16.09 ЮВ 5 20 км ясно +19.8 +2.6 32 +20 +20 1019.0 1003.4
00 17.09 ЮЗ 1 20 км ясно +15.5 +3.8 46 +16 +16 1018.8 1003.1
03 17.09 С 3 20 км ясно +16.8 +2.1 37 +17 +17 1019.5 1003.8
06 17.09 С 5 20 км ясно +27.0 +7.4 29 +27 +31 жарко 1020.1 1004.4 +14.3
09 17.09 Ю 1 20 км ясно +32.5 +6.4 20 +31 +44 жарко 1019.1 1003.4
12 17.09 СВ 2 20 км ясно +32.6 +4.3 17 +30 +34 жарко 1017.8 1002.1
15 17.09 С 1 20 км ясно +27.8 +5.9 25 +27 +27 жарко 1017.9 1002.2 +34.0
18 17.09 СЗ 1 20 км ясно +24.3 +5.4 30 +24 +24 комфорт 1018.6 1002.9 +34.0
21 17.09 штиль 0 20 км ясно +19.4 +6.7 44 +20 +20 1018.6 1002.9
00 18.09 С 1 20 км ясно +17.2 +4.5 43 +18 +18 1018.4 1002.8
03 18.09 С 1 20 км ясно +17.0 +3.7 41 +18 +19 1019.1 1003.5
06 18.09 С 2 20 км ясно +28.3 +4.7 22 +27 +35 жарко 1020.1 1004.4 +14.8
09 18.09 СВ 7 20 км ясно +32.2 +4.0 17 +30 +33 жарко 1019.4 1003.7
12 18.09 СВ 6 20 км ясно +32.0 +4.1 17 +30 +31 жарко 1018.6 1002.9
15 18.09 В 3 20 км ясно +26.5 +4.7 25 +26 +26 жарко 1018.9 1003.2 +33.1
18 18.09 СВ 2 20 км ясно +20.9 +3.8 32 +22 +22 комфорт 1019.6 1004.0 +33.1
21 18.09 СВ 1 20 км ясно +17.7 +3.4 39 +19 +19 1019.8 1004.1
00 19.09 СВ 1 20 км ясно +15.4 +2.9 43 +16 +16 1020.1 1004.4
03 19.09 СВ 1 20 км ясно +16.4 +7.0 54 +17 +18 1021.1 1005.4
06 19.09 В 2 20 км ясно +29.0 +3.7 20 +27 +35 жарко 1021.9 1006.2 +14.2
09 19.09 В 3 20 км ясно +30.7 +1.4 15 +28 +37 жарко 1019.5 1004.9
12 19.09 СВ 3 20 км ясно +30.5 +1.8 16 +28 +31 жарко 1020.7 1005.0
15 19.09 СВ 4 20 км ясно +24.7 +1.0 21 +23 +23 комфорт 1021.3 1005.6 +31.6
18 19.09 СВ 1 20 км ясно +19.8 +1.3 29 +21 +21 комфорт 1021.6 1005.9 +31.6
21 19.09 СВ 1 20 км ясно +16.0 +0.6 35 +17 +17 1021.3 1005.7
00 20.09 СВ 1 20 км ясно +15.3 +0.1 35 +16 +16 1021.0 1005.4
03 20.09 В 1 20 км ясно +16.1 -0.7 32 +17 +18 1021.4 1005.7
06 20.09 В 4 20 км ясно +26.4 -2.9 14 +24 +29 комфорт 1021.9 1006.2 +14.4
09 20.09 В 10 20 км ясно +30.1 -4.2 10 +27 +27 жарко 1020.6 1005.0
12 20.09 В 6 20 км ясно +30.2 -0.7 14 +27 +28 жарко 1019.6 1003.9
15 20.09 СВ 5 20 км ясно +23.4 +1.3 23 +22 +22 комфорт 1019.8 1004.1 +31.4
18 20.09 СВ 4 20 км ясно +18.4 +3.3 37 +18 +18 1019.9 1004.2 +31.4
21 20.09 СВ 5 20 км ясно +15.3 +4.0 47 +14 +14 1019.7 1004.4
00 21.09 СВ 5 20 км ясно +13.3 +5.4 59 +11 +11 1019.3 1003.9
03 21.09 СВ 2 20 км ясно +13.6 +7.1 65 +13 +14 1019.0 1003.3
06 21.09 В 7 20 км ясно +26.5 +0.3 18 +25 +27 комфорт 1018.6 1002.9 +12.1
09 21.09 СВ 6 20 км ясно +29.1 -1.5 14 +26 +30 жарко 1017.0 1003.3

 

Местоположение метеостанции Жаслык (Каракалпакстан, Узбекистан): широта 43.88 долгота 57.52 высота над уровнем моря 128 м.

В архиве по умолчанию представлена погода в Жаслыке за последнюю неделю. Архивные данные за месяц целиком и за предыдущие месяцы, начиная с января 2011 года, Вы можете получить, выбрав интересующий диапазон дат из раскрывающегося списка и нажав кнопку "Ввод!".

Внимание! Время в таблицах - всемирное. Для получения местного времени необходимо прибавить поправку, которая в Жаслыке равна 5 ч.

Смотрите также архив погоды в соседних городах и на ближайших метеорологических станциях:

Погода в Муйнаке (Каракалпакстан, Узбекистан) (98 км)
Погода в Каракалпакии (Каракалпакстан, Узбекистан) (144 км)
Погода в Кунграде (Каракалпакстан, Узбекистан) (144 км)
Погода в Саме (Мангистауская область, Казахстан) (202 км)
Погода в Чимбае (Каракалпакстан, Узбекистан) (213 км)
Погода в Кенеургенче (Дашогузский велаят, Туркменистан) (219 км)
Погода в Тахтакупыре (Каракалпакстан, Узбекистан) (231 км)
Погода в Нукусе (Каракалпакстан, Узбекистан) (233 км)
Погода в Бейнеу (Мангистауская область, Казахстан) (244 км)
Погода в Шах-Сенеме (Дашогузский велаят, Туркменистан) (274 км)

Пояснения к столбцам:

Ветер - указаны скорость ветра в м/с - средняя за 10 мин, порывы в срок и между сроками (в фигурных скобках) и направление, откуда дует ветер: С - северный, СВ - северо-восточный, В - восточный, ЮВ - юго-восточный, Ю - южный, ЮЗ - юго-западный, З - западный, СЗ - северо-западный.
Видимость - горизонтальная дальность видимости в метрах или километрах. При видимости от 1 до 10 км при отсутствии осадков обычно наблюдается дымка, при ухудшении видимости до 1 км и менее - туман. В сухую погоду видимость может ухудшаться дымом, пылью или мглою.
Явления - указаны атмосферные явления, наблюдавшиеся в срок или в последний час перед сроком; фигурными скобками обозначены явления, наблюдавшиеся между сроками (за 1-3 часа до срока); квадратными скобками обозначены град или гололедные отложения с указанием их диаметра в мм.
Облачность - указаны через наклонную черту общая и нижняя облачность в баллах и высота нижней границы облаков в метрах; квадратными скобками обозначены формы облаков: Ci - перистые, Cs - перисто-слоистые, Cc - перисто-кучевые, Ac - высококучевые, As - высокослоистые, Sc - слоисто-кучевые, Ns - слоисто-дождевые, Cu - кучевые, Cb - кучево-дождевые. Подробнее классификацию облаков см. в Атласе облаков (PDF).
T - Температура воздуха - температура, измеренная на высоте 2 м над землей.
Td - Температура точки росы - температура, при понижении до которой содержащийся в воздухе водяной пар достигнет насыщения.
f - Относительная влажность воздуха - влажноcть воздуха, измеренная на высоте 2 м над землей.
Te - Эффективная температура - температура, которую ощущает одетый по сезону человек в тени. Характеристика душности погоды. При расчете учитывается влияние влажности воздуха и скорости ветра на теплоощущения человека.
Tes - Эффективная температура на солнце - температура, которую ощущает человек, с поправкой на солнечный нагрев. Характеристика знойности погоды. Зависит от высоты солнца над горизонтом, облачности и скорости ветра. Ночью, в пасмурную погоду, а также при ветре 12 м/с и более поправка равна нулю.
P - Атмосферное давление - приведенное к уровню моря атмосферное давление.
Po - Атмосферное давление - измеренное на уровне метеостанции атмосферное давление.
Tmin - Минимальная температура - минимум температуры воздуха на высоте 2 м над землей.
Tmax - Максимальная температура - максимум температуры воздуха на высоте 2 м над землей.
R - Количество осадков - Количество выпавших осадков за период времени, мм. При наведении курсора мыши на число - период времени, за который выпало указанное количество осадков.
R24 - Количество осадков - Количество выпавших осадков за 24 часа, мм.
S - Снежный покров - Высота снежного покрова, см. При наведении курсора мыши на число - состояние снежного покрова и степень покрытия местности в баллах.